[[{"header":{"parameterUnit":"m.s-1","parameterCategory":1,"la1":30.2991,"la2":30.254,"lo1":-89.0895,"lo2":-89.0444,"dy":0.0017,"dx":0.0017,"nx":28,"ny":28,"refTime":"2024-04-20T09:00:00:Z","depth":0,"parameterNumber":2,"parameterNumberName":"U-component_of_WINDS"},"data":[0,0,0,0,0,0,0,0,0,0,0,0,0,0,0,0,0,0,0,0,0,0,0,0,0,0,0,0,0,0,0,0,0,0,0,0,0,0,0,0,0,0,0,0,0,0,0,0,0,0,0,0,0,0,0,0,0,0,0.7751,0.7752,0,0.7839,0.784,0.7841,0.783,0.7828,0.7827,0.7826,0.7922,0.7926,0.793,0,0,0,0,0,0,0,0,0,0,0,0,0,0.7577,0.758,0.775,0.7752,0.7753,0.7839,0.784,0.7841,0.783,0.7828,0.7827,0.7825,0.7921,0.7925,0.793,0,0,0,0,0,0,0,0,0,0,0,0,0,0.7657,0.7581,0.775,0.7757,0.7759,0.7839,0.784,0.7842,0.783,0.7828,0.7826,0.7824,0.7919,0.7925,0.7931,0.8011,0,0,0.7949,0.7951,0,0,0,0,0,0,0,0,0.7653,0.7664,0.7755,0.7757,0.7759,0.7821,0.7814,0.7899,0.7831,0.7803,0.7825,0.7823,0.7891,0.7899,0.792,0.8015,0.802,0.7949,0.7953,0.7955,0.7957,0,0,0,0,0,0,0,0.7647,0.766,0.7786,0.7757,0.7759,0.7758,0.7767,0.783,0.7858,0.7806,0.7805,0.7815,0.7891,0.7915,0.7922,0.8021,0.7949,0.7954,0.7958,0.796,0.8186,0.8189,0,0,0,0,0,0,0.7639,0.7655,0.7783,0.7788,0.7699,0.7763,0.7773,0.7803,0.7858,0.7864,0.7817,0.7815,0.7906,0.7916,0.7926,0.8023,0.7955,0.7961,0.7964,0.8184,0.8187,0.819,0,0,0,0,0,0,0.7635,0.7651,0.7779,0.7722,0.7738,0.7768,0.7802,0.7806,0.783,0.7866,0.7872,0.7836,0.7904,0.7918,0.7989,0.8026,0.7963,0.7969,0.8181,0.8185,0.8188,0.8218,0,0,0,0,0,0,0.763,0.7649,0.7679,0.7722,0.7741,0.784,0.7805,0.781,0.7839,0.7837,0.7885,0.7891,0.7904,0.7981,0.7995,0.8033,0.7973,0.8178,0.8183,0.8187,0.8214,0.8223,0.823,0,0,0,0,0,0.7624,0.7685,0.7681,0.7696,0.7779,0.7842,0.7853,0.7865,0.7842,0.7873,0.7896,0.7889,0.802,0.7988,0.8004,0.8045,0.8176,0.8181,0.8187,0.8211,0.8221,0.823,0,0,0,0,0,0,0.7648,0.7691,0.7686,0.7763,0.7799,0.784,0.7879,0.7875,0.792,0.7916,0.793,0.7941,0.8013,0.8036,0.8,0.8125,0.8095,0.8104,0.8107,0.8117,0.8125,0.8118,0.7978,0,0,0,0,0,0.7661,0.7708,0.7744,0.7808,0.7826,0.7849,0.7878,0.7883,0.7922,0.7937,0.7966,0.8005,0.8055,0.8087,0.8135,0.8217,0.8228,0.8253,0.8261,0.8267,0.8275,0.832,0.8332,0.8208,0.8208,0.8208,0,0,0.7691,0.772,0.7749,0.7813,0.7842,0.7891,0.7862,0.7916,0.7953,0.7946,0.8015,0.8038,0.8082,0.8159,0.8195,0.8181,0.8311,0.8274,0.8279,0.8283,0.8327,0.8339,0.8349,0.8212,0.8211,0.821,0,0,0.777,0.7796,0.7852,0.7881,0.7923,0.7938,0.7952,0.7994,0.8008,0.8076,0.8072,0.8118,0.8203,0.8234,0.8262,0.8351,0.8347,0.8367,0.8408,0.8452,0.8461,0.847,0.8502,0.8513,0.8375,0.8375,0.8375,0,0.7802,0.7873,0.7882,0.7935,0.7964,0.7958,0.8016,0.8044,0.81,0.8121,0.8104,0.821,0.824,0.8324,0.8346,0.8368,0.8385,0.8362,0.8459,0.8468,0.8476,0.8507,0.8519,0.8377,0.8376,0.8376,0.8376,0,0.7911,0.7961,0.8001,0.8053,0.8087,0.8142,0.816,0.8193,0.8196,0.8213,0.8284,0.8319,0.8373,0.8394,0.8398,0.8479,0.8469,0.8455,0.8425,0.849,0.8519,0.8531,0.838,0.8379,0.8378,0.8378,0,0,0.8007,0.8062,0.8077,0.8101,0.8147,0.8187,0.8242,0.8293,0.8321,0.8361,0.8408,0.848,0.8467,0.8498,0.8505,0.8544,0.8612,0.8525,0.8527,0.854,0.8704,0.8714,0.8727,0.8609,0.8611,0.8613,0.87,0,0.809,0.8186,0.8195,0.8281,0.8328,0.8323,0.8371,0.8405,0.8423,0.8466,0.8486,0.8537,0.8516,0.8535,0.8572,0.8596,0.8645,0.859,0.8655,0.8657,0.8643,0.8742,0.8753,0.8833,0.8711,0.8713,0.8715,0,0.82,0.824,0.833,0.8369,0.8389,0.8432,0.8479,0.852,0.856,0.857,0.8604,0.8606,0.8664,0.8631,0.8712,0.8674,0.8701,0.8717,0.872,0.8727,0.869,0.8752,0.8859,0.8871,0.8733,0.8731,0.873,0,0.8261,0.8338,0.8402,0.8422,0.8469,0.8499,0.8521,0.8557,0.8587,0.8629,0.8649,0.8698,0.8725,0.8764,0.878,0.8754,0.886,0.8829,0.8871,0.8871,0.8894,0.8893,0.9007,0.8911,0.8911,0.8911,0.8911,0,0.8353,0.8409,0.843,0.8469,0.8531,0.8542,0.8604,0.8624,0.8656,0.8701,0.87,0.8742,0.876,0.8805,0.8818,0.8883,0.8896,0.8906,0.8909,0.8906,0.8905,0.8925,0.892,0.8914,0.8914,0.8913,0.8912,0,0.8432,0.8448,0.8517,0.8555,0.8566,0.8611,0.8644,0.8683,0.8699,0.8755,0.8769,0.8796,0.8848,0.8868,0.8933,0.8942,0.9017,0.9016,0.9003,0.9004,0.9045,0.9041,0.9177,0.9195,0.9087,0.9088,0.9089,0,0.8489,0.8532,0.8574,0.8602,0.8624,0.867,0.87,0.8712,0.8744,0.8791,0.8824,0.8876,0.8918,0.9004,0.903,0.908,0.9079,0.9123,0.9087,0.9083,0.908,0.9077,0.9081,0.913,0.9131,0.9132,0.9133,0,0.859,0.8595,0.8637,0.8683,0.8718,0.8755,0.879,0.8814,0.8832,0.8868,0.892,0.8953,0.9018,0.907,0.9121,0.9145,0.9143,0.9144,0.9157,0.9154,0.9145,0.915,0.9022,0.9141,0.914,0.914,0.9139,0.9139,0.866,0.8697,0.8732,0.8779,0.8806,0.8839,0.8877,0.8897,0.8941,0.8994,0.8999,0.9056,0.9094,0.9162,0.9188,0.9233,0.9222,0.924,0.9244,0.9249,0.9251,0.9138,0.9243,0.9243,0.9242,0.9242,0.9242,0,0.876,0.8781,0.8825,0.8873,0.891,0.8903,0.8942,0.8974,0.9023,0.9058,0.9099,0.916,0.921,0.924,0.929,0.9321,0.9321,0.9334,0.9332,0.9338,0.9259,0.9243,0.9333,0.9333,0.9333,0.9333,0.9333,0.9333,0.8816,0.8878,0.8888,0.8964,0.8986,0.904,0.9063,0.9094,0.9121,0.9188,0.9229,0.9248,0.9281,0.9334,0.938,0.9387,0.9406,0.942,0.9426,0.9353,0.9343,0.9334,0.9319,0.9424,0.9424,0.9501,0.9502,0.9502]},{"header":{"parameterUnit":"m.s-1","parameterCategory":1,"la1":30.2991,"la2":30.254,"lo1":-89.0895,"lo2":-89.0444,"dy":0.0017,"dx":0.0017,"nx":28,"ny":28,"refTime":"2024-04-20T09:00:00:Z","depth":0,"parameterNumber":3,"parameterNumberName":"V-component_of_WINDS"},"data":[0,0,0,0,0,0,0,0,0,0,0,0,0,0,0,0,0,0,0,0,0,0,0,0,0,0,0,0,0,0,0,0,0,0,0,0,0,0,0,0,0,0,0,0,0,0,0,0,0,0,0,0,0,0,0,0,0,0,1.6338,1.6338,0,1.641,1.641,1.6411,1.6408,1.6406,1.6405,1.6404,1.6478,1.6481,1.6484,0,0,0,0,0,0,0,0,0,0,0,0,0,1.6196,1.6198,1.6337,1.6338,1.6339,1.6409,1.641,1.6411,1.6408,1.6406,1.6405,1.6404,1.6477,1.648,1.6484,0,0,0,0,0,0,0,0,0,0,0,0,0,1.6261,1.6199,1.6337,1.6346,1.6347,1.6409,1.641,1.6412,1.6408,1.6406,1.6405,1.6403,1.6476,1.648,1.6484,1.6542,0,0,1.6498,1.65,0,0,0,0,0,0,0,0,1.6258,1.6267,1.6344,1.6345,1.6347,1.6398,1.6387,1.6456,1.6408,1.6385,1.6404,1.6403,1.6453,1.6459,1.6476,1.6546,1.6549,1.6498,1.6501,1.6503,1.6504,0,0,0,0,0,0,0,1.6253,1.6264,1.6366,1.6345,1.6347,1.6346,1.6353,1.64,1.6427,1.6387,1.6387,1.6395,1.6453,1.6472,1.6477,1.655,1.6498,1.6502,1.6505,1.6506,1.6671,1.6672,0,0,0,0,0,0,1.6247,1.626,1.6364,1.6368,1.6298,1.635,1.6358,1.6383,1.6426,1.6431,1.6397,1.6395,1.6465,1.6472,1.648,1.655,1.6503,1.6507,1.6509,1.6669,1.6671,1.6673,0,0,0,0,0,0,1.6244,1.6256,1.6361,1.6314,1.6327,1.6354,1.6382,1.6385,1.6404,1.6433,1.6438,1.641,1.6464,1.6474,1.6527,1.6553,1.6509,1.6513,1.6667,1.6669,1.6672,1.6691,0,0,0,0,0,0,1.624,1.6255,1.6278,1.6315,1.633,1.6407,1.6384,1.6388,1.6411,1.641,1.6448,1.6452,1.6463,1.652,1.6531,1.6558,1.6516,1.6665,1.6668,1.6671,1.6688,1.6694,1.6699,0,0,0,0,0,1.6235,1.628,1.6279,1.6291,1.6359,1.6408,1.6417,1.6429,1.6413,1.6436,1.6455,1.6451,1.6548,1.6526,1.6538,1.6566,1.6663,1.6667,1.6671,1.6686,1.6693,1.6699,0,0,0,0,0,0,1.6246,1.6285,1.6284,1.6343,1.6372,1.6407,1.6437,1.6436,1.647,1.6467,1.648,1.6489,1.6542,1.6559,1.6534,1.6624,1.6604,1.661,1.6611,1.6618,1.6623,1.6618,1.652,0,0,0,0,0,1.6255,1.6293,1.6325,1.6374,1.6389,1.641,1.6432,1.6439,1.6469,1.6482,1.6505,1.6534,1.6571,1.6596,1.6631,1.6691,1.6699,1.6716,1.6722,1.6726,1.6731,1.6763,1.6771,1.6686,1.6686,1.6686,0,0,1.6275,1.6301,1.6324,1.6377,1.64,1.6438,1.642,1.6462,1.649,1.6488,1.6539,1.6557,1.6591,1.6647,1.6673,1.6664,1.6757,1.6731,1.6734,1.6737,1.6768,1.6776,1.6783,1.6688,1.6688,1.6687,0,0,1.633,1.6354,1.6397,1.6421,1.6456,1.647,1.648,1.6516,1.6527,1.6579,1.6578,1.6612,1.6675,1.67,1.672,1.6784,1.6781,1.6795,1.6823,1.6854,1.686,1.6866,1.6888,1.6896,1.68,1.68,1.68,0,1.635,1.6407,1.6419,1.646,1.6483,1.6483,1.6527,1.6549,1.6594,1.661,1.6599,1.6678,1.6701,1.6763,1.6778,1.6795,1.6807,1.6791,1.6859,1.6865,1.687,1.6892,1.69,1.6802,1.6801,1.6801,1.6801,0,1.643,1.647,1.65,1.6544,1.657,1.6612,1.663,1.6655,1.6659,1.6674,1.6726,1.6754,1.6794,1.681,1.6814,1.6872,1.6864,1.6856,1.6835,1.688,1.69,1.6908,1.6804,1.6803,1.6803,1.6802,0,0,1.6494,1.6544,1.6555,1.6574,1.6613,1.6644,1.6685,1.6726,1.6747,1.6778,1.6813,1.6866,1.6858,1.6882,1.6889,1.6916,1.6963,1.6904,1.6905,1.6913,1.7028,1.7034,1.7043,1.6962,1.6964,1.6965,1.7024,0,1.6553,1.6627,1.6639,1.6704,1.674,1.6741,1.6777,1.6804,1.6819,1.6852,1.6868,1.6906,1.6893,1.6907,1.6934,1.6952,1.6986,1.6948,1.6994,1.6996,1.6985,1.7053,1.706,1.7115,1.7032,1.7034,1.7035,0,1.6632,1.6665,1.6734,1.6767,1.6783,1.6815,1.6852,1.6884,1.6915,1.6924,1.6949,1.6953,1.6995,1.6973,1.7032,1.7005,1.7025,1.7036,1.7039,1.7043,1.7018,1.7059,1.7133,1.7141,1.7047,1.7046,1.7045,0,1.6671,1.6733,1.6782,1.6799,1.6839,1.6862,1.6879,1.6909,1.6932,1.6964,1.6979,1.7016,1.7036,1.7065,1.7078,1.706,1.7135,1.7114,1.7143,1.7143,1.7159,1.7158,1.7237,1.7172,1.7172,1.7172,1.7172,0,1.6736,1.6778,1.68,1.683,1.6877,1.6889,1.6935,1.6952,1.6978,1.7011,1.7014,1.7044,1.706,1.7093,1.7104,1.715,1.7159,1.7167,1.717,1.7167,1.7166,1.718,1.7176,1.7174,1.7174,1.7173,1.7173,0,1.6788,1.6805,1.6858,1.6891,1.6901,1.6934,1.6962,1.6991,1.7005,1.7047,1.7058,1.708,1.7119,1.7135,1.7183,1.719,1.7243,1.7243,1.7233,1.7233,1.7261,1.7258,1.7351,1.7364,1.7292,1.7292,1.7293,0,1.6827,1.686,1.6896,1.6919,1.6937,1.6973,1.6997,1.701,1.7034,1.7071,1.7096,1.7134,1.7166,1.7228,1.7249,1.7285,1.7285,1.7315,1.7291,1.7287,1.7285,1.7283,1.7286,1.732,1.732,1.7321,1.7321,0,1.6896,1.6902,1.6936,1.6973,1.7001,1.703,1.7059,1.7077,1.7095,1.7122,1.7162,1.7186,1.7235,1.7273,1.731,1.7328,1.7328,1.7329,1.7338,1.7335,1.7328,1.7331,1.7244,1.7327,1.7326,1.7326,1.7326,1.7325,1.6943,1.6971,1.7001,1.7039,1.7061,1.7088,1.7117,1.7135,1.7168,1.7209,1.7214,1.7257,1.7286,1.7336,1.7355,1.7388,1.7381,1.7393,1.7396,1.7399,1.7401,1.7323,1.7395,1.7395,1.7395,1.7395,1.7395,0,1.7011,1.703,1.7064,1.7104,1.7134,1.7131,1.7162,1.7187,1.7224,1.7251,1.7283,1.7328,1.7365,1.7388,1.7425,1.7447,1.7448,1.7456,1.7454,1.7458,1.7406,1.7394,1.7455,1.7455,1.7455,1.7455,1.7455,1.7455,1.7049,1.7097,1.7107,1.7166,1.7185,1.7226,1.7245,1.7269,1.7291,1.7341,1.7372,1.7387,1.7413,1.7451,1.7485,1.7491,1.7504,1.7513,1.7518,1.7468,1.7462,1.7456,1.7446,1.7516,1.7516,1.7568,1.7569,1.7569]}]]